x

Big Sable Point, Mi (bsbm4) Weather Station

1:40pm - Thu 23rd Mar 2017 All times are CDT. -5 hours from GMT.

  • Wind
    11mph, 20mph gusts
  • Air Temp 38°f
  • Sea Pressure 1026.4mb
  • Big Sable Point, Mi
  • Big Sable Point, Mi

More Historic Weather Station data

Upgrade to MSW Pro to gain access to the past 30 days of data for over 8000 Wavebouys and Weather Stations around the globe.

Join Pro

Comparision Forecast

View Surf forecast
   
Thu 03/23 1:40pm 11 20 mph 1026.4mb 38f
1:30pm 14 18 mph 1026.8mb 37f
1:20pm 13 20 mph 1027.4mb 37f
1:10pm 11 20 mph 1027.4mb 37f
1:00pm 13 16 mph 1027.8mb 37f
12:40pm 11 20 mph 1028.1mb 36f
12:30pm 11 20 mph 1028.1mb 36f
12:20pm 11 20 mph 1028.1mb 36f
12:10pm 13 20 mph 1028.4mb 36f
12:00pm 11 17 mph 1028.8mb 35f
11:40am 10 15 mph 1029.1mb 35f
11:30am 9 16 mph 1029.5mb 35f
11:20am 8 14 mph 1029.5mb 35f
11:10am 10 15 mph 1029.5mb 34f
11:00am 11 26 mph 1029.5mb 34f
10:40am 11 18 mph 1030.1mb 34f
10:30am 14 20 mph 1030.5mb 34f
10:20am 15 22 mph 1030.5mb 33f
10:10am 11 20 mph 1030.8mb 33f
10:00am 14 18 mph 1030.8mb 33f
9:40am 14 21 mph 1031.2mb 33f
9:30am 16 21 mph 1031.2mb 33f
9:20am 9 16 mph 1031.5mb 32f
9:10am 9 15 mph 1031.5mb 31f
9:00am 9 14 mph 1031.8mb 31f
8:30am 11 17 mph 1031.8mb 30f
8:20am 10 16 mph 1031.8mb 30f
8:10am 10 14 mph 1031.8mb 30f
8:00am 9 15 mph 1031.8mb 30f
7:40am 8 13 mph 1031.8mb 29f
7:30am 9 14 mph 1031.5mb 29f
7:20am 8 11 mph 1031.8mb 28f
7:10am 7 10 mph 1031.8mb 28f
7:00am 6 9 mph 1031.8mb 28f
6:40am 7 10 mph 1032.2mb 28f
6:30am 7 10 mph 1031.8mb 28f
6:20am 7 9 mph 1031.8mb 28f
6:10am 7 8 mph 1031.5mb 27f
6:00am 7 10 mph 1031.8mb 27f
5:40am 7 10 mph 1031.8mb 26f
5:30am 7 10 mph 1031.8mb 26f
5:20am 8 13 mph 1031.5mb 26f
5:10am 8 10 mph 1031.8mb 26f
5:00am 9 13 mph 1031.8mb 26f
4:40am 8 11 mph 1031.5mb 25f
4:30am 6 8 mph 1031.5mb 24f
4:20am 6 9 mph 1031.8mb 24f
4:10am 7 10 mph 1031.5mb 24f
4:00am 6 10 mph 1031.8mb 24f
3:40am 9 11 mph 1031.8mb 25f
3:30am 10 14 mph 1031.5mb 24f
3:20am 10 15 mph 1031.8mb 24f
3:10am 10 15 mph 1031.8mb 24f
3:00am 10 14 mph 1031.8mb 24f
2:40am 9 11 mph 1032.2mb 24f
2:30am 8 13 mph 1032.2mb 24f
2:20am 8 10 mph 1032.5mb 24f
2:10am 6 10 mph 1032.8mb 24f
2:00am 7 10 mph 1032.8mb 24f
1:40am 7 11 mph 1033.2mb 24f
1:30am 8 10 mph 1033.2mb 24f
1:20am 7 8 mph 1033.5mb 23f
1:10am 5 6 mph 1033.5mb 23f
1:00am 5 8 mph 1033.5mb 24f
12:40am 6 7 mph 1033.5mb 23f
12:30am 6 7 mph 1033.5mb 23f
12:20am 6 7 mph 1033.5mb 23f
12:10am 6 7 mph 1033.5mb 23f
12:00am 7 8 mph 1033.5mb 23f
Wed 03/22 11:40pm 6 7 mph 1033.5mb 23f
11:30pm 6
mph
1033.9mb 23f
11:20pm 6 7 mph 1033.9mb 23f
11:10pm 6 7 mph 1033.9mb 23f
11:00pm 7
mph
1033.5mb 23f
10:40pm 6 7 mph 1033.5mb 23f
10:30pm 6 7 mph 1033.5mb 23f
10:20pm 6
mph
1033.5mb 23f
10:10pm 6 7 mph 1033.9mb 23f
10:00pm 6 7 mph 1033.9mb 23f
9:40pm 5
mph
1034.2mb 22f
9:30pm 5 6 mph 1033.9mb 22f
9:20pm 5
mph
1033.9mb 22f
9:10pm 3
mph
1033.9mb 24f
9:00pm 3
mph
1033.9mb 23f
8:40pm 2 3 mph 1034.2mb 23f
8:30pm 2
mph
1034.2mb 24f
8:20pm  -  2 mph 1033.9mb 24f
8:10pm 1 3 mph 1034.2mb 25f
8:00pm 1 2 mph 1034.2mb 25f
7:40pm 1 3 mph 1034.2mb 26f
7:30pm 3 5 mph 1034.2mb 26f
7:20pm 2 5 mph 1034.2mb 26f
7:10pm 3 5 mph 1034.2mb 26f
7:00pm 3 6 mph 1034.2mb 26f
6:40pm 5
mph
1034.5mb 27f
6:30pm 3 8 mph 1034.5mb 27f
6:20pm 5 7 mph 1034.5mb 27f
6:10pm 6 8 mph 1034.9mb 27f
6:00pm 6 9 mph 1034.5mb 27f
5:40pm 6 10 mph 1034.9mb 28f
5:30pm 6 9 mph 1034.9mb 28f
5:20pm 7 10 mph 1034.9mb 28f
5:10pm 7 10 mph 1034.9mb 28f
5:00pm 7 11 mph 1034.9mb 28f
4:40pm 8 10 mph 1035.2mb 29f
4:30pm 8 11 mph 1035.6mb 29f
4:20pm 9 13 mph 1035.6mb 29f
4:10pm 10 13 mph 1035.6mb 29f
4:00pm 8 13 mph 1035.6mb 29f
3:40pm 9 11 mph 1035.9mb 28f
3:30pm 9 11 mph 1035.9mb 28f
3:20pm 8 11 mph 1035.9mb 29f
3:10pm 8 11 mph 1035.9mb 28f
3:00pm 8 13 mph 1035.9mb 29f
2:40pm 11 14 mph 1036.6mb 29f
2:30pm 9 10 mph 1036.6mb 28f
2:20pm 8 10 mph 1036.6mb 29f
2:10pm 8 11 mph 1036.6mb 29f
2:00pm 7 10 mph 1036.6mb 29f
1:50pm 8 10 mph 1036.9mb 29f
1:40pm 8 13 mph 1036.9mb 28f
1:30pm 9 13 mph 1036.9mb 28f
1:20pm 9 11 mph 1036.9mb 28f
1:10pm 8 13 mph 1036.9mb 27f
1:00pm 9 13 mph 1037.3mb 28f
12:50pm 10 13 mph 1037.3mb 28f
12:40pm 10 13 mph 1037.3mb 28f
12:30pm 10 13 mph 1036.9mb 28f
12:20pm 9 11 mph 1036.9mb 28f
12:10pm 11 13 mph 1036.9mb 28f
12:00pm 8 13 mph 1036.9mb 28f
11:50am 9 13 mph 1036.9mb 27f
11:40am 9 13 mph 1036.9mb 27f
11:30am 9 13 mph 1036.9mb 27f
11:20am 9 13 mph 1036.9mb 27f
11:10am 9 14 mph 1036.9mb 26f
11:00am 9 14 mph 1036.9mb 26f
10:50am 11 15 mph 1036.9mb 26f
10:40am 10 15 mph 1036.6mb 26f
10:30am 10 15 mph 1036.6mb 25f
10:20am 10 14 mph 1036.6mb 26f
10:10am 10 14 mph 1036.6mb 26f
10:00am 10 16 mph 1036.6mb 25f
9:50am 10 17 mph 1036.9mb 24f
9:40am 11 15 mph 1036.6mb 25f
9:30am 14 17 mph 1036.6mb 24f
9:20am 7 16 mph 1036.6mb 24f
9:10am 11 15 mph 1036.6mb 25f
9:00am 11 16 mph 1036.6mb 24f
8:50am 8 16 mph 1036.6mb 24f
8:40am 11 15 mph 1036.2mb 24f
8:30am 14 18 mph 1036.2mb 24f
8:20am 10 18 mph 1035.9mb 25f
8:10am 11 15 mph 1035.6mb 24f
8:00am 11 16 mph 1035.6mb 24f
7:50am 11 16 mph 1035.2mb 23f
7:40am 10 14 mph 1035.2mb 24f
7:30am 10 13 mph 1035.2mb 24f
7:20am 7 10 mph 1035.2mb 23f
7:10am 9 13 mph 1034.9mb 23f
7:00am 7 11 mph 1034.9mb 23f
6:50am 7 11 mph 1034.9mb 23f
6:40am 10 15 mph 1034.5mb 23f
6:30am 10 15 mph 1034.5mb 23f
6:20am 9 13 mph 1034.5mb 23f
6:10am 9 14 mph 1034.5mb 23f
6:00am 11 25 mph 1034.2mb 24f
5:50am 15 25 mph 1034.2mb 24f
5:40am 17 23 mph 1034.2mb 24f
5:30am 13 22 mph 1034.2mb 24f
5:20am 11 20 mph 1034.2mb 24f
5:10am 16 26 mph 1033.9mb 24f
5:00am 21 26 mph 1033.5mb 24f
4:50am 21 28 mph 1033.5mb 25f
4:40am 16 28 mph 1033.2mb 25f
4:30am 17 28 mph 1033.5mb 25f
4:20am 18 25 mph 1033.2mb 25f
4:10am 21 28 mph 1033.2mb 25f
4:00am 18 30 mph 1033.2mb 25f
3:51am 21 29 mph 1032.8mb 25f
3:50am 21 26 mph 1032.8mb 25f
3:40am 20 26 mph 1033.2mb 25f
3:30am 22 26 mph 1032.8mb 25f
3:20am 15 26 mph 1032.8mb 25f
3:10am 18 28 mph 1033.2mb 26f
3:00am 20 29 mph 1032.8mb 26f
2:50am 18 29 mph 1032.8mb 26f
2:40am 18 28 mph 1032.8mb 25f
2:30am 16 25 mph 1032.8mb 26f
2:20am 22 30 mph 1032.8mb 25f
2:10am 20 25 mph 1032.8mb 26f
2:00am 22 29 mph 1032.5mb 25f
1:55am 20 29 mph 1032.5mb 25f
1:50am 23 31 mph 1032.5mb 26f
1:40am 21 30 mph 1032.5mb 25f
1:30am 24 32 mph 1032.2mb 25f
1:20am 23 34 mph 1032.2mb 25f
1:10am 23 32 mph 1032.2mb 25f
1:00am 24 33 mph 1032.2mb 26f
12:50am 20 31 mph 1032.2mb 26f
12:46am 20 30 mph 1031.8mb 25f
12:40am 23 31 mph 1031.8mb 26f
12:30am 24 36 mph 1031.8mb 25f
12:20am 26 34 mph 1031.8mb 25f
12:10am 28 33 mph 1031.8mb 25f
12:00am 25 34 mph 1031.5mb 25f
Tue 03/21 11:50pm 28 39 mph 1031.2mb 25f
11:40pm 28 38 mph 1031.5mb 25f
11:30pm 29 38 mph 1031.5mb 25f
11:20pm 25 37 mph 1031.2mb 25f
11:10pm 24 38 mph 1031.5mb 26f
11:00pm 28 38 mph 1031.2mb 26f
10:50pm 28 41 mph 1030.8mb 26f
10:42pm 26 41 mph 1030.5mb 26f
10:40pm 25 37 mph 1030.8mb 26f
10:30pm 28 38 mph 1030.8mb 26f
10:20pm 26 37 mph 1030.8mb 26f
10:10pm 29 36 mph 1030.5mb 26f
10:00pm 24 32 mph 1030.5mb 26f
9:50pm 28 34 mph 1030.1mb 26f
9:40pm 25 34 mph 1030.1mb 26f
9:30pm 23 33 mph 1030.1mb 26f
9:20pm 29 37 mph 1029.8mb 26f
9:10pm 29 34 mph 1029.8mb 27f
9:00pm 24 34 mph 1029.8mb 27f
8:50pm 26 34 mph 1029.5mb 27f
8:40pm 24 36 mph 1029.5mb 27f
8:30pm 25 34 mph 1029.1mb 27f
8:20pm 24 34 mph 1029.1mb 27f
8:10pm 28 34 mph 1028.8mb 28f
8:00pm 26 36 mph 1028.4mb 28f
7:50pm 28 36 mph 1028.1mb 28f
7:49pm 28 33 mph 1028.1mb 28f
7:40pm 28 36 mph 1028.1mb 28f
7:30pm 24 33 mph 1027.8mb 28f
7:20pm 25 34 mph 1027.8mb 28f
7:10pm 24 37 mph 1027.4mb 28f
7:00pm 24 36 mph 1027.1mb 28f
6:48pm 24 30 mph 1027.1mb 29f
6:40pm 24 34 mph 1027.1mb 29f
6:30pm 24 33 mph 1027.1mb 29f
6:20pm 23 34 mph 1026.8mb 29f
6:10pm 25 34 mph 1026.4mb 29f
6:00pm 25 33 mph 1026.4mb 29f
5:50pm 25 34 mph 1026.4mb 29f
5:47pm 24 33 mph 1026.4mb 30f
5:40pm 22 32 mph 1026.4mb 30f
5:30pm 25 32 mph 1026.4mb 29f
5:20pm 22 32 mph 1026.4mb 30f
5:10pm 23 33 mph 1026.1mb 30f
5:00pm 25 34 mph 1026.1mb 31f
4:50pm 22 33 mph 1025.7mb 31f
4:47pm 25 30 mph 1025.7mb 31f
4:40pm 22 34 mph 1025.7mb 31f
4:30pm 24 32 mph 1025.7mb 31f
4:20pm 26 32 mph 1025.4mb 32f
4:10pm 22 33 mph 1025.7mb 32f
4:00pm 22 30 mph 1025.4mb 33f
3:50pm 23 29 mph 1025.1mb 33f
3:46pm 22 29 mph 1025.1mb 33f
3:40pm 21 29 mph 1025.1mb 34f
3:30pm 21 28 mph 1025.1mb 34f
3:20pm 21 28 mph 1024.7mb 34f
3:10pm 20 28 mph 1024.7mb 34f
3:00pm 22 26 mph 1024.7mb 35f
2:50pm 22 26 mph 1024.4mb 34f
2:40pm 20 29 mph 1024.7mb 35f
2:36pm 22 29 mph 1024.4mb 34f
2:30pm 21 28 mph 1024.4mb 35f
2:20pm 20 28 mph 1024.4mb 35f
2:10pm 20 28 mph 1024.4mb 35f
2:00pm 20 26 mph 1024.4mb 35f
1:50pm 22 28 mph 1024.4mb 35f
1:40pm 23 33 mph 1024.4mb 34f
1:30pm 23 31 mph 1024.4mb 35f
1:20pm 24 33 mph 1024.4mb 35f
1:10pm 23 32 mph 1024.4mb 35f
1:00pm 25 32 mph 1024.4mb 34f
12:51pm 24 30 mph 1024.4mb 35f
12:50pm 24 32 mph 1024.4mb 35f
12:40pm 23 32 mph 1024mb 35f
12:30pm 25 33 mph 1024mb 35f
12:20pm 24 33 mph 1023.7mb 35f
12:10pm 26 32 mph 1023.7mb 35f
12:00pm 24 33 mph 1023.7mb 35f
11:51am 21 30 mph 1023.4mb 37f
11:50am 21 28 mph 1023.7mb 37f
11:40am 21 28 mph 1023.7mb 37f
11:30am 24 29 mph 1023.7mb 37f
11:20am 20 31 mph 1023.7mb 37f
11:10am 26 34 mph 1023.4mb 37f
11:00am 28 33 mph 1023mb 36f
10:50am 25 33 mph 1023mb 37f
10:40am 22 32 mph 1022.7mb 37f
10:30am 25 31 mph 1022.7mb 37f
10:25am 21 29 mph 1022.7mb 38f
10:20am 22 31 mph 1022.7mb 38f
10:10am 20 29 mph 1022.4mb 38f
10:00am 25 30 mph 1022.4mb 38f
9:50am 26 33 mph 1022mb 38f
9:40am 26 32 mph 1022mb 38f
9:30am 25 31 mph 1021.7mb 39f
9:20am 24 29 mph 1021.7mb 39f
9:19am 22 29 mph 1021.7mb 39f
9:10am 18 23 mph 1021.3mb 39f
9:00am 18 22 mph 1021.3mb 39f
8:50am 20 22 mph 1020.7mb 39f
8:40am 20 23 mph 1020.7mb 39f
8:30am 18 21 mph 1020.7mb 39f
8:20am 17 22 mph 1020.7mb 39f
8:10am 20 21 mph 1020.7mb 39f
8:00am 17 20 mph 1020.3mb 39f
7:50am 16 21 mph 1020.3mb 39f
7:40am 17 21 mph 1020.3mb 39f
7:30am 18 22 mph 1020mb 39f
7:20am 17 22 mph 1020mb 39f
7:10am 18 21 mph 1019.6mb 39f
7:00am 16 18 mph 1019.6mb 38f
6:50am 14 16 mph 1019.3mb 38f
6:40am 15 17 mph 1019.3mb 38f
6:30am 15 18 mph 1019.3mb 38f
6:20am 14 16 mph 1019.3mb 38f
6:10am 15 17 mph 1019.3mb 38f
6:00am 15 18 mph 1019mb 38f
5:50am 14 18 mph 1019mb 38f
5:40am 15 17 mph 1019mb 38f
5:30am 11 16 mph 1019mb 38f
5:20am 11 15 mph 1018.6mb 38f
5:10am 11 13 mph 1018.6mb 38f
5:00am 10 11 mph 1018.6mb 38f
4:50am 10
mph
1018.6mb 38f
4:40am 8 9 mph 1018.6mb 38f
4:30am 8 9 mph 1018.6mb 38f
4:20am 9 11 mph 1018.6mb 38f
4:10am 9 10 mph 1018.6mb 38f
4:00am 8 9 mph 1018.6mb 37f
3:50am 7 8 mph 1018.6mb 37f
3:40am 7 9 mph 1019mb 37f
3:30am 7 9 mph 1019mb 37f
3:20am 5 6 mph 1019.3mb 35f
3:10am 3 6 mph 1019.3mb 36f
3:00am 5 7 mph 1019.3mb 36f
2:50am 5
mph
1019.3mb 35f
2:40am 3 5 mph 1019.3mb 34f
2:30am 3 5 mph 1019.3mb 34f
2:20am 2 3 mph 1019.3mb 34f
2:10am 2 3 mph 1019.3mb 34f
2:00am 3
mph
1019.3mb 34f
1:50am 3
mph
1019.3mb 33f
1:40am 3 5 mph 1019.3mb 33f
1:30am 2 3 mph 1019.3mb 33f
1:20am 2
mph
1019.3mb 33f
1:10am  -  2 mph 1019.3mb 34f
1:00am 2 3 mph 1019.3mb 35f
12:50am 3 5 mph 1019.3mb 35f
12:40am 5
mph
1019.3mb 34f
12:30am 5
mph
1019.3mb 34f
12:20am 5
mph
1019.3mb 34f
12:10am 5
mph
1019.6mb 34f
12:00am 5
mph
1019.6mb 34f
Mon 03/20 11:50pm 5
mph
1019.6mb 35f
11:40pm 5
mph
1020mb 35f
11:30pm 5 6 mph 1020mb 35f
11:20pm 5
mph
1020mb 35f
11:10pm 5 6 mph 1020mb 36f
11:00pm 5 7 mph 1019.6mb 36f
10:50pm 6 7 mph 1019.6mb 36f
10:40pm 6 8 mph 1019.6mb 37f
10:30pm 7 8 mph 1019.6mb 37f
10:20pm 6 9 mph 1019.3mb 37f
10:10pm 7 9 mph 1019.3mb 37f
10:00pm 7 8 mph 1019.3mb 37f
9:50pm 7 8 mph 1019.3mb 37f
9:40pm 6 9 mph 1019.3mb 38f
9:30pm 7 8 mph 1019.3mb 38f
9:20pm 6 9 mph 1019.3mb 38f
9:10pm 8 9 mph 1019.6mb 38f
9:00pm 7 9 mph 1019.3mb 39f
8:50pm 8 11 mph 1019.3mb 39f
8:40pm 8 10 mph 1019.3mb 39f
8:30pm 9 11 mph 1019.3mb 39f
8:20pm 7 9 mph 1019.3mb 39f
8:10pm 8 10 mph 1019.3mb 39f
8:00pm 8 9 mph 1019.3mb 39f
7:50pm 8 13 mph 1019.3mb 39f
7:40pm 9 15 mph 1019.3mb 39f
7:30pm 11 16 mph 1019mb 39f
7:20pm 10 15 mph 1018.6mb 39f
7:10pm 10 13 mph 1018.6mb 39f
7:00pm 13 16 mph 1018.6mb 39f
6:50pm 13 17 mph 1018.6mb 39f
6:40pm 14 17 mph 1018.6mb 40f
6:30pm 10 13 mph 1018.3mb 39f
6:20pm 8 11 mph 1018.3mb 39f
6:10pm 10 13 mph 1017.9mb 39f
6:00pm 8 14 mph 1017.9mb 39f
5:50pm 10 14 mph 1017.9mb 39f
5:40pm 9 14 mph 1017.9mb 39f
5:30pm 9 13 mph 1017.6mb 39f
5:20pm 10 16 mph 1017.6mb 39f
5:10pm 11 15 mph 1017.6mb 38f
5:00pm 10 14 mph 1017.3mb 40f
4:50pm 9 16 mph 1016.9mb 40f
4:40pm 13 16 mph 1016.9mb 40f
4:30pm 11 14 mph 1017.3mb 40f
4:20pm 9 13 mph 1017.6mb 40f
4:10pm 8 14 mph 1017.6mb 41f
4:00pm 9 11 mph 1017.6mb 40f
3:50pm 9 14 mph 1017.6mb 40f
3:40pm 8 10 mph 1017.3mb 41f
3:30pm 8 10 mph 1017.3mb 40f
3:20pm 7 11 mph 1017.9mb 41f
3:10pm 7 9 mph 1017.6mb 40f
3:00pm 6 9 mph 1018.3mb 40f
2:50pm 7 10 mph 1018.3mb 40f
2:40pm 8 9 mph 1018.6mb 41f
2:30pm 8 9 mph 1018.3mb 41f
2:20pm 7 8 mph 1018.6mb 41f
2:10pm 6 8 mph 1018.6mb 42f
2:00pm 7
mph
1018.6mb 43f
1:50pm 5 6 mph 1018.6mb 42f
1:40pm 3 5 mph 1018.6mb 42f
1:30pm 5
mph
1019mb 41f
1:20pm 2 3 mph 1019mb 41f
1:10pm 5 6 mph 1019mb 40f
1:00pm 3 7 mph 1018.6mb 41f
12:50pm 5 7 mph 1018.6mb 42f
12:40pm 5 7 mph 1018.6mb 42f
12:30pm 5 8 mph 1018.6mb 42f
12:20pm 7 9 mph 1018.3mb 43f
12:10pm 7 11 mph 1018.6mb 42f
12:00pm 7 23 mph 1018.3mb 42f
11:50am 8 9 mph 1018.6mb 42f
11:40am 6 7 mph 1019mb 40f
11:30am 6 7 mph 1018.6mb 40f
11:20am 5 7 mph 1018.6mb 40f
11:10am 5 7 mph 1019mb 40f
11:00am 5 8 mph 1018.6mb 41f
10:50am 5 8 mph 1018.6mb 41f
10:40am 7 10 mph 1018.3mb 41f
10:30am 8 11 mph 1017.9mb 41f
10:20am 8 11 mph 1017.6mb 41f
10:10am 8 10 mph 1017.6mb 40f
10:00am 8 10 mph 1017.9mb 40f
9:50am 8 13 mph 1017.9mb 41f
9:40am 10 14 mph 1017.6mb 40f
9:30am 9 13 mph 1017.6mb 40f
9:20am 8 11 mph 1017.6mb 40f
9:10am 8 11 mph 1017.6mb 40f
9:00am 8 11 mph 1017.6mb 40f
8:50am 9 13 mph 1017.6mb 39f
8:40am 9 14 mph 1017.6mb 39f
8:30am 10 14 mph 1017.6mb 39f
8:20am 13 15 mph 1017.6mb 39f
8:10am 10 15 mph 1017.3mb 39f
8:00am 10 14 mph 1017.6mb 38f
7:50am 9 13 mph 1017.3mb 38f
7:40am 11 16 mph 1017.3mb 38f
7:30am 11 15 mph 1017.3mb 39f
7:20am 10 15 mph 1017.3mb 39f
7:10am 9 17 mph 1016.9mb 39f
7:00am 10 16 mph 1016.9mb 38f
6:50am 9 15 mph 1017.3mb 38f
6:40am 11 16 mph 1017.3mb 39f
6:30am 13 17 mph 1017.3mb 39f
6:20am 10 16 mph 1016.9mb 39f
6:10am 11 15 mph 1017.3mb 39f
6:00am 10 14 mph 1016.9mb 39f
5:50am 9 14 mph 1016.9mb 39f
5:40am 9 13 mph 1016.6mb 39f
5:30am 9 14 mph 1016.6mb 39f
5:20am 9 15 mph 1016.6mb 39f
5:10am 9 15 mph 1016.6mb 39f
5:00am 10 15 mph 1016.9mb 39f
4:50am 11 16 mph 1016.6mb 39f
4:40am 11 16 mph 1017.3mb 40f
4:30am 9 17 mph 1016.9mb 40f
4:20am 10 16 mph 1016.9mb 40f
4:10am 10 14 mph 1016.9mb 40f
4:00am 10 15 mph 1016.9mb 40f
3:50am 9 16 mph 1016.9mb 40f
3:40am 10 15 mph 1017.3mb 40f
3:30am 10 18 mph 1017.6mb 41f
3:20am 14 21 mph 1017.6mb 41f
3:10am 13 23 mph 1017.9mb 41f
3:00am 14 23 mph 1017.9mb 41f
2:50am 13 20 mph 1017.9mb 41f
2:40am 13 20 mph 1018.3mb 41f
2:30am 13 20 mph 1018.6mb 41f
2:20am 15 22 mph 1018.6mb 41f
2:10am 13 21 mph 1019mb 40f
2:00am 15 21 mph 1019mb 40f
1:50am 15 23 mph 1019.3mb 40f
1:40am 13 22 mph 1019.3mb 40f
1:30am 11 18 mph 1019.6mb 39f
1:20am 13 20 mph 1020mb 39f
1:10am 11 21 mph 1020mb 40f
1:00am 13 18 mph 1020mb 40f
12:50am 11 17 mph 1020.3mb 40f
12:40am 11 17 mph 1020.7mb 40f
12:30am 13 17 mph 1020.7mb 39f
12:20am 9 15 mph 1020.7mb 39f
12:10am 9 15 mph 1020.7mb 39f
12:00am 11 17 mph 1020.7mb 39f
Sun 03/19 11:50pm 13 17 mph 1020.7mb 38f
11:40pm 13 16 mph 1020.7mb 38f
11:30pm 13 17 mph 1020.7mb 38f
11:20pm 9 11 mph 1021.3mb 38f
11:10pm 7 9 mph 1021.7mb 38f
11:00pm 3 9 mph 1022mb 39f
10:50pm 3 11 mph 1021.7mb 40f
10:40pm 8 10 mph 1021.3mb 41f
10:30pm 6 9 mph 1022mb 42f
10:20pm 7 26 mph 1021.3mb 42f
10:10pm 9 22 mph 1020.7mb 41f
10:00pm 16 23 mph 1019.3mb 41f
9:50pm 17 24 mph 1019.3mb 40f
9:40pm 15 25 mph 1019.3mb 40f
9:30pm 15 24 mph 1020mb 40f
9:20pm 20 26 mph 1020.3mb 40f
9:10pm 17 24 mph 1020mb 39f
9:00pm 17 23 mph 1020.3mb 39f
8:50pm 15 24 mph 1020.3mb 38f
8:40pm 15 21 mph 1021mb 38f
8:30pm 15 22 mph 1021mb 38f
8:20pm 15 22 mph 1021.3mb 38f
8:10pm 14 20 mph 1021.7mb 37f
8:00pm 13 21 mph 1021.7mb 37f
7:50pm 13 18 mph 1022mb 37f
7:40pm 13 18 mph 1022mb 37f
7:30pm 13 16 mph 1022.4mb 37f
7:20pm 10 16 mph 1022.4mb 37f